Погода в Новообинке

Россия / Алтайский край     52°14′16″N   84°04′01″E
темп.,
°C
ветер,
м/с
пор.,
м/с
влажн.,
%
обл.,
%
осадки,
мм/ч
давл.,
гПа
погр.,
м
17 апреля, сб
сб1701:00+9юз4107299 0.0 1014163
04:00+8ссз2381100 0.0 101444
07:00+6сз3598100 0.3 1016263
10:00+4с4691100 0.8 1019472
13:00+3в2491100 1.6 1022391
16:00+4вюв3477100 0.1 1023653
19:00+4вюв447477 0.1 1024715
22:00+1в35865 0.0 1024105
18 апреля, вс
вс1801:000в23875 0.0 102345
04:000ю11885 0.0 102110
07:00+1юз24874 0.0 102190
10:00+6зюз48605 0.0 1020756
13:00+10зюз610465 0.0 10181774
16:00+12зюз81247100 0.0 10152352
19:00+11юз6115575 0.0 1013603
22:00+9ююз6166280 0.0 1010371
19 апреля, пн
пн1901:00+11юз81852100 0.0 1007506
04:00+7з61578100 0.0 1008624
07:00+2зсз81572100 1.3 10131126
10:00−1зсз6757100 0.0 10201297
13:00+2сз4545100 0.0 10211721
16:00+3зсз4538100 0.0 10212071
19:00+2сз553999 0.0 10221682
22:00−1с484982 0.0 1024495
20 апреля, вт
вт2001:00−2ссв4651100 0.0 1025784
04:00−3ссв4548100 0.0 10251003
07:00−4ссв4548100 0.0 10251069
10:00−2ссв443899 0.0 10251593
13:00+1ссв443099 0.0 10252091
16:00+2ссв442899 0.0 10242369
19:00+1св443177 0.0 10252067
22:00−2св125199 0.0 102625
21 апреля, ср
ср2101:00−3ссв11525 0.0 102610
04:00−3юз11535 0.0 102512
07:00−3юз2352100 0.0 1025154
10:000зюз3337100 0.0 10241191
13:00+2зюз3431100 0.0 10231737
16:00+4зюз3434100 0.0 10221927
19:00+3з2349100 0.0 10231234
22:00+1вюв3460100 0.0 102486